QPF
0.00 0.00 0.00 0.00 0.01 0.01 0.02 0.01 0.01 0.01 0.01 0.00 0.00 0.01 0.01 0.01 0.02 0.03 0.01 0.01 0.02 0.02 0.04 0.08 0.10 0.10 0.11 0.07 0.06 0.08 0.08 0.07 0.05 0.05 0.04 0.04 0.06 0.08 0.09 0.08 0.05 0.06 0.07 0.06 0.05 0.05 0.05 0.04 0.05
0.00 0.00 0.00 0.00 0.01 0.01 0.01 0.01 0.01 0.01 0.00 0.00 0.00 0.00 0.00 0.01 0.02 0.02 0.02 0.02 0.02 0.02 0.04 0.07 0.10 0.08 0.08 0.07 0.08 0.11 0.08 0.05 0.05 0.06 0.06 0.06 0.07 0.09 0.09 0.08 0.06 0.05 0.07 0.08 0.05 0.04 0.04 0.04 0.05
0.00 0.00 0.00 0.01 0.01 0.02 0.02 0.01 0.01 0.01 0.01 0.01 0.01 0.00 0.00 0.01 0.02 0.02 0.02 0.01 0.03 0.03 0.04 0.06 0.13 0.12 0.13 0.13 0.11 0.08 0.07 0.05 0.04 0.04 0.08 0.10 0.10 0.12 0.09 0.07 0.06 0.05 0.06 0.08 0.07 0.06 0.06 0.06 0.07
0.00 0.00 0.00 0.01 0.01 0.01 0.01 0.01 0.01 0.01 0.01 0.01 0.00 0.01 0.01 0.01 0.02 0.02 0.02 0.01 0.02 0.03 0.05 0.09 0.16 0.20 0.15 0.13 0.13 0.10 0.08 0.07 0.06 0.05 0.10 0.14 0.15 0.11 0.06 0.05 0.06 0.06 0.06 0.09 0.10 0.11 0.10 0.09 0.09
0.00 0.00 0.01 0.01 0.01 0.00 0.00 0.00 0.01 0.01 0.01 0.01 0.01 0.01 0.01 0.01 0.02 0.01 0.01 0.01 0.01 0.02 0.06 0.11 0.14 0.22 0.17 0.13 0.11 0.13 0.13 0.11 0.08 0.06 0.06 0.07 0.07 0.05 0.05 0.05 0.06 0.07 0.07 0.08 0.10 0.12 0.11 0.10 0.10
0.00 0.00 0.01 0.01 0.01 0.01 0.00 0.00 0.00 0.00 0.00 0.00 0.00 0.01 0.01 0.01 0.01 0.01 0.01 0.01 0.01 0.03 0.06 0.10 0.11 0.19 0.17 0.14 0.13 0.14 0.18 0.15 0.11 0.09 0.04 0.03 0.03 0.05 0.06 0.05 0.06 0.07 0.08 0.08 0.08 0.08 0.09 0.10 0.08
0.00 0.00 0.00 0.01 0.01 0.01 0.00 0.00 0.00 0.00 0.00 0.00 0.00 0.01 0.01 0.01 0.02 0.01 0.00 0.01 0.02 0.02 0.03 0.04 0.06 0.12 0.13 0.12 0.13 0.17 0.41 0.26 0.17 0.13 0.09 0.04 0.03 0.04 0.05 0.05 0.06 0.07 0.08 0.08 0.09 0.08 0.08 0.06 0.05
0.00 0.00 0.00 0.01 0.01 0.01 0.00 0.00 0.00 0.00 0.00 0.00 0.00 0.00 0.01 0.00 0.01 0.01 0.01 0.00 0.01 0.01 0.01 0.03 0.05 0.07 0.07 0.09 0.12 0.19 0.34 0.26 0.22 0.16 0.12 0.07 0.05 0.04 0.05 0.05 0.06 0.07 0.09 0.11 0.10 0.08 0.07 0.05 0.05
0.00 0.00 0.01 0.00 0.01 0.01 0.01 0.00 0.00 0.00 0.00 0.00 0.00 0.00 0.00 0.00 0.01 0.01 0.01 0.01 0.01 0.01 0.01 0.02 0.02 0.03 0.03 0.04 0.07 0.19 0.12 0.14 0.21 0.13 0.09 0.10 0.11 0.10 0.09 0.06 0.07 0.08 0.12 0.10 0.07 0.07 0.07 0.07 0.08
0.01 0.01 0.01 0.00 0.00 0.00 0.00 0.01 0.01 0.00 0.00 0.00 0.00 0.01 0.00 0.01 0.01 0.01 0.01 0.01 0.00 0.01 0.00 0.01 0.01 0.01 0.01 0.01 0.04 0.14 0.13 0.18 0.15 0.07 0.07 0.09 0.10 0.11 0.08 0.08 0.09 0.10 0.11 0.08 0.07 0.07 0.06 0.06 0.06
0.01 0.01 0.01 0.00 0.00 0.00 0.01 0.01 0.00 0.00 0.01 0.00 0.00 0.00 0.00 0.01 0.02 0.02 0.01 0.00 0.00 0.00 0.00 0.00 0.00 0.00 0.00 0.01 0.02 0.05 0.08 0.14 0.10 0.07 0.07 0.08 0.08 0.07 0.07 0.09 0.10 0.11 0.09 0.09 0.08 0.07 0.07 0.05 0.04
0.00 0.00 0.00 0.00 0.00 0.00 0.01 0.01 0.02 0.01 0.01 0.01 0.01 0.00 0.00 0.01 0.01 0.01 0.01 0.00 0.00 0.00 0.00 0.00 0.00 0.01 0.00 0.01 0.02 0.03 0.04 0.07 0.08 0.06 0.07 0.07 0.06 0.05 0.05 0.07 0.09 0.09 0.10 0.11 0.07 0.08 0.08 0.07 0.04
0.00 0.00 0.00 0.00 0.00 0.00 0.01 0.01 0.02 0.01 0.01 0.01 0.01 0.00 0.01 0.01 0.01 0.01 0.01 0.01 0.01 0.00 0.00 0.00 0.00 0.00 0.01 0.02 0.02 0.02 0.03 0.04 0.05 0.06 0.06 0.06 0.04 0.04 0.04 0.06 0.09 0.09 0.10 0.10 0.08 0.09 0.09 0.07 0.06
0.00 0.00 0.00 0.00 0.00 0.00 0.01 0.00 0.01 0.01 0.01 0.01 0.01 0.01 0.01 0.01 0.01 0.01 0.01 0.02 0.01 0.01 0.00 0.00 0.00 0.00 0.00 0.01 0.02 0.03 0.03 0.03 0.04 0.04 0.05 0.05 0.05 0.04 0.05 0.07 0.11 0.13 0.10 0.08 0.09 0.12 0.11 0.08 0.07
0.00 0.00 0.00 0.00 0.00 0.00 0.00 0.01 0.01 0.01 0.01 0.02 0.02 0.01 0.01 0.01 0.01 0.01 0.01 0.01 0.02 0.01 0.01 0.01 0.00 0.00 0.00 0.01 0.01 0.02 0.03 0.02 0.04 0.04 0.04 0.07 0.06 0.05 0.04 0.06 0.12 0.13 0.09 0.08 0.08 0.08 0.06 0.05 0.05
0.00 0.00 0.00 0.00 0.00 0.01 0.00 0.01 0.01 0.01 0.01 0.01 0.01 0.01 0.00 0.01 0.01 0.00 0.00 0.01 0.01 0.02 0.01 0.01 0.00 0.00 0.01 0.01 0.02 0.02 0.02 0.02 0.05 0.05 0.04 0.05 0.05 0.05 0.04 0.05 0.11 0.12 0.07 0.07 0.07 0.08 0.06 0.05 0.05
0.00 0.00 0.00 0.00 0.00 0.00 0.00 0.00 0.01 0.02 0.05 0.04 0.02 0.01 0.00 0.00 0.01 0.00 0.00 0.01 0.01 0.01 0.01 0.00 0.00 0.00 0.01 0.02 0.02 0.02 0.01 0.02 0.05 0.06 0.04 0.05 0.05 0.04 0.05 0.06 0.11 0.11 0.07 0.07 0.07 0.06 0.06 0.06 0.06
0.00 0.00 0.00 0.00 0.00 0.00 0.00 0.00 0.00 0.00 0.01 0.02 0.02 0.01 0.00 0.00 0.01 0.01 0.01 0.00 0.00 0.00 0.00 0.00 0.01 0.01 0.01 0.01 0.01 0.02 0.02 0.02 0.03 0.06 0.07 0.06 0.05 0.04 0.04 0.05 0.09 0.10 0.08 0.07 0.07 0.06 0.06 0.07 0.07
0.00 0.00 0.00 0.00 0.00 0.00 0.00 0.00 0.00 0.00 0.00 0.00 0.00 0.00 0.00 0.01 0.01 0.01 0.01 0.00 0.00 0.00 0.00 0.00 0.01 0.00 0.01 0.01 0.01 0.01 0.02 0.02 0.02 0.04 0.06 0.06 0.04 0.04 0.04 0.04 0.08 0.08 0.06 0.07 0.06 0.05 0.05 0.06 0.06
0.00 0.00 0.00 0.00 0.00 0.00 0.00 0.00 0.00 0.00 0.00 0.01 0.00 0.00 0.00 0.01 0.01 0.00 0.00 0.00 0.00 0.00 0.00 0.01 0.01 0.01 0.01 0.01 0.01 0.01 0.01 0.01 0.01 0.02 0.03 0.04 0.04 0.04 0.04 0.07 0.07 0.06 0.06 0.05 0.05 0.04 0.04 0.04 0.05
0.00 0.00 0.00 0.00 0.00 0.00 0.00 0.00 0.00 0.00 0.00 0.00 0.00 0.00 0.00 0.00 0.00 0.00 0.00 0.00 0.00 0.00 0.00 0.00 0.01 0.01 0.01 0.01 0.00 0.01 0.01 0.01 0.02 0.02 0.02 0.05 0.06 0.05 0.06 0.07 0.07 0.07 0.05 0.05 0.06 0.05 0.04 0.05 0.05
0.00 0.00 0.00 0.00 0.00 0.00 0.00 0.00 0.00 0.00 0.00 0.00 0.00 0.00 0.00 0.00 0.00 0.00 0.00 0.01 0.00 0.00 0.00 0.00 0.01 0.01 0.01 0.01 0.01 0.01 0.01 0.01 0.02 0.02 0.02 0.04 0.07 0.07 0.06 0.07 0.09 0.10 0.08 0.07 0.05 0.05 0.05 0.06 0.07
0.00 0.00 0.00 0.00 0.00 0.00 0.00 0.00 0.00 0.00 0.00 0.00 0.00 0.00 0.00 0.00 0.01 0.01 0.01 0.01 0.00 0.00 0.00 0.00 0.01 0.01 0.01 0.01 0.01 0.01 0.01 0.01 0.03 0.02 0.02 0.04 0.09 0.09 0.06 0.06 0.08 0.08 0.08 0.08 0.06 0.06 0.06 0.06 0.08
0.00 0.00 0.00 0.00 0.00 0.00 0.00 0.00 0.00 0.00 0.00 0.00 0.00 0.00 0.00 0.01 0.01 0.01 0.01 0.01 0.01 0.00 0.00 0.00 0.00 0.00 0.00 0.01 0.01 0.01 0.01 0.02 0.03 0.03 0.03 0.04 0.07 0.08 0.06 0.05 0.06 0.08 0.08 0.08 0.07 0.07 0.07 0.08 0.09
0.00 0.00 0.00 0.00 0.00 0.00 0.00 0.00 0.00 0.00 0.00 0.00 0.00 0.00 0.00 0.01 0.01 0.01 0.00 0.01 0.01 0.00 0.00 0.00 0.00 0.00 0.00 0.00 0.01 0.01 0.02 0.02 0.03 0.03 0.03 0.03 0.04 0.05 0.05 0.04 0.05 0.06 0.07 0.08 0.08 0.08 0.06 0.07 0.08
0.00 0.00 0.00 0.00 0.00 0.00 0.00 0.00 0.00 0.00 0.00 0.00 0.00 0.00 0.00 0.01 0.01 0.01 0.01 0.01 0.01 0.00 0.00 0.00 0.00 0.00 0.00 0.01 0.01 0.01 0.02 0.02 0.02 0.03 0.03 0.03 0.03 0.03 0.03 0.03 0.03 0.03 0.04 0.07 0.08 0.08 0.07 0.07 0.07
0.00 0.00 0.00 0.00 0.00 0.00 0.00 0.00 0.00 0.00 0.00 0.00 0.00 0.00 0.00 0.01 0.01 0.01 0.01 0.01 0.00 0.00 0.00 0.00 0.00 0.00 0.00 0.01 0.01 0.01 0.01 0.01 0.01 0.02 0.03 0.03 0.03 0.03 0.02 0.02 0.02 0.03 0.03 0.05 0.06 0.06 0.06 0.07 0.07
0.00 0.00 0.00 0.00 0.00 0.00 0.00 0.00 0.00 0.00 0.00 0.00 0.00 0.00 0.00 0.00 0.00 0.00 0.01 0.01 0.00 0.00 0.00 0.00 0.00 0.00 0.01 0.01 0.01 0.00 0.01 0.02 0.03 0.02 0.02 0.02 0.03 0.03 0.03 0.02 0.03 0.03 0.04 0.05 0.06 0.06 0.05 0.06 0.06
0.00 0.00 0.00 0.00 0.00 0.00 0.00 0.00 0.00 0.00 0.00 0.00 0.00 0.00 0.00 0.00 0.00 0.00 0.01 0.01 0.00 0.00 0.00 0.00 0.00 0.00 0.01 0.01 0.01 0.01 0.01 0.02 0.03 0.02 0.02 0.02 0.02 0.02 0.03 0.03 0.03 0.03 0.04 0.05 0.06 0.05 0.04 0.04 0.06
0.00 0.00 0.00 0.00 0.00 0.00 0.00 0.00 0.00 0.00 0.00 0.00 0.01 0.00 0.00 0.00 0.00 0.00 0.01 0.01 0.00 0.00 0.00 0.00 0.01 0.01 0.01 0.01 0.01 0.01 0.01 0.01 0.01 0.01 0.01 0.03 0.03 0.03 0.03 0.03 0.03 0.02 0.02 0.03 0.04 0.03 0.04 0.04 0.04
MSLP
1008.03 1008.40 1008.81 1009.22 1009.57 1009.82 1009.96 1010.01 1009.99 1009.96 1010.00 1010.15 1010.41 1010.77 1011.17 1011.55 1011.83 1011.95 1011.91 1011.74 1011.51 1011.29 1011.15 1011.16 1011.31 1011.58 1011.90 1012.20 1012.44 1012.56 1012.56 1012.50 1012.40 1012.34 1012.34 1012.42 1012.56 1012.71 1012.84 1012.91 1012.90 1012.84 1012.77 1012.71 1012.73 1012.82 1013.00 1013.24 1013.49
1008.11 1008.51 1008.94 1009.34 1009.67 1009.90 1010.02 1010.03 1009.99 1009.95 1009.96 1010.06 1010.28 1010.58 1010.94 1011.27 1011.52 1011.65 1011.65 1011.56 1011.42 1011.31 1011.29 1011.39 1011.62 1011.94 1012.29 1012.60 1012.82 1012.94 1012.94 1012.88 1012.79 1012.73 1012.72 1012.79 1012.89 1013.01 1013.10 1013.13 1013.11 1013.05 1012.99 1012.97 1013.02 1013.14 1013.33 1013.56 1013.78
1008.23 1008.65 1009.08 1009.46 1009.77 1009.97 1010.05 1010.05 1009.99 1009.94 1009.93 1010.02 1010.20 1010.47 1010.77 1011.06 1011.29 1011.42 1011.45 1011.42 1011.36 1011.35 1011.42 1011.61 1011.90 1012.25 1012.62 1012.93 1013.15 1013.26 1013.28 1013.22 1013.15 1013.11 1013.11 1013.16 1013.25 1013.33 1013.39 1013.39 1013.36 1013.30 1013.26 1013.27 1013.34 1013.49 1013.68 1013.89 1014.06
1008.34 1008.77 1009.18 1009.54 1009.80 1009.97 1010.04 1010.03 1009.98 1009.93 1009.94 1010.03 1010.21 1010.45 1010.73 1010.99 1011.19 1011.32 1011.37 1011.38 1011.39 1011.44 1011.59 1011.83 1012.15 1012.52 1012.89 1013.19 1013.41 1013.52 1013.54 1013.51 1013.47 1013.46 1013.48 1013.54 1013.61 1013.67 1013.70 1013.69 1013.64 1013.59 1013.57 1013.61 1013.71 1013.87 1014.06 1014.23 1014.34
1008.40 1008.81 1009.18 1009.50 1009.74 1009.88 1009.94 1009.94 1009.92 1009.91 1009.96 1010.09 1010.29 1010.54 1010.81 1011.05 1011.24 1011.37 1011.43 1011.46 1011.51 1011.61 1011.79 1012.06 1012.39 1012.75 1013.10 1013.38 1013.58 1013.69 1013.73 1013.73 1013.72 1013.74 1013.79 1013.87 1013.94 1014.00 1014.01 1013.99 1013.94 1013.90 1013.90 1013.95 1014.07 1014.24 1014.41 1014.54 1014.60
1008.35 1008.72 1009.06 1009.33 1009.53 1009.66 1009.73 1009.76 1009.79 1009.85 1009.97 1010.16 1010.41 1010.70 1010.98 1011.23 1011.42 1011.54 1011.61 1011.66 1011.73 1011.85 1012.04 1012.30 1012.62 1012.95 1013.26 1013.51 1013.68 1013.78 1013.82 1013.85 1013.88 1013.93 1014.01 1014.11 1014.19 1014.25 1014.26 1014.23 1014.18 1014.15 1014.16 1014.23 1014.36 1014.52 1014.67 1014.77 1014.77
1008.20 1008.51 1008.79 1009.02 1009.19 1009.31 1009.40 1009.48 1009.58 1009.73 1009.94 1010.22 1010.54 1010.88 1011.20 1011.48 1011.68 1011.81 1011.88 1011.94 1012.01 1012.13 1012.31 1012.56 1012.84 1013.13 1013.38 1013.58 1013.72 1013.79 1013.83 1013.87 1013.92 1014.00 1014.10 1014.21 1014.30 1014.35 1014.36 1014.32 1014.28 1014.25 1014.26 1014.34 1014.47 1014.62 1014.76 1014.83 1014.79
1007.96 1008.21 1008.43 1008.61 1008.76 1008.87 1008.99 1009.12 1009.30 1009.54 1009.85 1010.22 1010.63 1011.04 1011.41 1011.71 1011.94 1012.08 1012.17 1012.23 1012.31 1012.42 1012.59 1012.81 1013.05 1013.28 1013.48 1013.63 1013.71 1013.76 1013.78 1013.80 1013.85 1013.94 1014.05 1014.16 1014.25 1014.29 1014.28 1014.24 1014.18 1014.15 1014.17 1014.24 1014.37 1014.51 1014.64 1014.69 1014.64
1007.69 1007.88 1008.04 1008.17 1008.29 1008.41 1008.55 1008.73 1008.98 1009.31 1009.71 1010.17 1010.65 1011.13 1011.55 1011.89 1012.14 1012.31 1012.41 1012.48 1012.56 1012.67 1012.83 1013.02 1013.23 1013.42 1013.56 1013.65 1013.69 1013.69 1013.67 1013.67 1013.70 1013.77 1013.87 1013.96 1014.03 1014.05 1014.03 1013.97 1013.90 1013.86 1013.87 1013.94 1014.06 1014.19 1014.31 1014.35 1014.30
1007.45 1007.58 1007.69 1007.78 1007.87 1007.98 1008.14 1008.36 1008.66 1009.05 1009.53 1010.06 1010.60 1011.13 1011.60 1011.98 1012.26 1012.44 1012.56 1012.65 1012.74 1012.86 1013.01 1013.18 1013.37 1013.52 1013.62 1013.67 1013.66 1013.61 1013.55 1013.51 1013.51 1013.54 1013.61 1013.67 1013.71 1013.71 1013.66 1013.58 1013.49 1013.43 1013.43 1013.48 1013.59 1013.72 1013.83 1013.88 1013.85
1007.31 1007.39 1007.45 1007.51 1007.57 1007.67 1007.83 1008.07 1008.40 1008.83 1009.34 1009.91 1010.50 1011.06 1011.56 1011.97 1012.26 1012.47 1012.61 1012.71 1012.82 1012.94 1013.10 1013.27 1013.44 1013.58 1013.66 1013.67 1013.63 1013.54 1013.44 1013.36 1013.31 1013.31 1013.33 1013.36 1013.36 1013.33 1013.26 1013.15 1013.05 1012.97 1012.94 1012.98 1013.07 1013.19 1013.30 1013.36 1013.35
1007.31 1007.36 1007.39 1007.41 1007.44 1007.52 1007.66 1007.89 1008.22 1008.65 1009.18 1009.76 1010.36 1010.94 1011.45 1011.87 1012.18 1012.40 1012.55 1012.67 1012.79 1012.93 1013.10 1013.28 1013.45 1013.59 1013.66 1013.66 1013.60 1013.49 1013.36 1013.24 1013.15 1013.11 1013.10 1013.09 1013.07 1013.01 1012.92 1012.80 1012.67 1012.57 1012.53 1012.54 1012.61 1012.72 1012.82 1012.89 1012.90
1007.47 1007.50 1007.50 1007.49 1007.49 1007.54 1007.65 1007.85 1008.15 1008.56 1009.07 1009.63 1010.23 1010.79 1011.30 1011.72 1012.04 1012.26 1012.42 1012.55 1012.68 1012.83 1013.01 1013.20 1013.39 1013.54 1013.62 1013.63 1013.56 1013.44 1013.30 1013.16 1013.05 1012.98 1012.95 1012.92 1012.88 1012.82 1012.71 1012.58 1012.45 1012.33 1012.26 1012.25 1012.30 1012.39 1012.48 1012.55 1012.57
1007.76 1007.79 1007.77 1007.73 1007.70 1007.71 1007.78 1007.93 1008.19 1008.55 1009.01 1009.54 1010.09 1010.64 1011.13 1011.54 1011.85 1012.07 1012.23 1012.36 1012.49 1012.65 1012.83 1013.04 1013.25 1013.42 1013.53 1013.56 1013.51 1013.40 1013.27 1013.13 1013.01 1012.93 1012.89 1012.86 1012.82 1012.76 1012.67 1012.54 1012.40 1012.28 1012.19 1012.16 1012.18 1012.24 1012.31 1012.38 1012.40
1008.15 1008.17 1008.14 1008.08 1008.03 1008.00 1008.02 1008.11 1008.30 1008.60 1008.99 1009.46 1009.97 1010.47 1010.94 1011.33 1011.63 1011.84 1012.00 1012.12 1012.25 1012.40 1012.59 1012.81 1013.03 1013.23 1013.37 1013.43 1013.41 1013.34 1013.22 1013.10 1013.00 1012.93 1012.89 1012.87 1012.85 1012.81 1012.74 1012.63 1012.50 1012.38 1012.28 1012.22 1012.22 1012.25 1012.31 1012.36 1012.39
1008.57 1008.59 1008.55 1008.49 1008.41 1008.35 1008.32 1008.35 1008.47 1008.68 1008.99 1009.38 1009.82 1010.27 1010.70 1011.06 1011.35 1011.56 1011.71 1011.83 1011.95 1012.10 1012.29 1012.51 1012.75 1012.97 1013.14 1013.24 1013.27 1013.23 1013.15 1013.05 1012.97 1012.92 1012.90 1012.90 1012.91 1012.89 1012.85 1012.78 1012.67 1012.56 1012.46 1012.39 1012.36 1012.38 1012.42 1012.47 1012.49
1008.96 1008.98 1008.95 1008.89 1008.81 1008.72 1008.65 1008.61 1008.64 1008.75 1008.96 1009.25 1009.61 1009.99 1010.37 1010.71 1010.98 1011.18 1011.33 1011.44 1011.57 1011.71 1011.91 1012.14 1012.39 1012.64 1012.84 1012.99 1013.06 1013.07 1013.02 1012.95 1012.89 1012.86 1012.86 1012.88 1012.92 1012.94 1012.94 1012.90 1012.82 1012.73 1012.64 1012.58 1012.55 1012.55 1012.58 1012.62 1012.66
1009.28 1009.31 1009.31 1009.27 1009.20 1009.09 1008.98 1008.87 1008.80 1008.80 1008.88 1009.05 1009.29 1009.59 1009.90 1010.20 1010.46 1010.66 1010.81 1010.94 1011.07 1011.23 1011.44 1011.68 1011.96 1012.24 1012.48 1012.67 1012.79 1012.84 1012.83 1012.79 1012.75 1012.73 1012.74 1012.78 1012.84 1012.89 1012.93 1012.93 1012.89 1012.84 1012.78 1012.72 1012.70 1012.70 1012.74 1012.78 1012.82
1009.51 1009.57 1009.61 1009.61 1009.56 1009.46 1009.31 1009.12 1008.94 1008.80 1008.72 1008.74 1008.85 1009.04 1009.27 1009.51 1009.75 1009.95 1010.12 1010.27 1010.44 1010.62 1010.86 1011.13 1011.45 1011.76 1012.06 1012.30 1012.47 1012.56 1012.59 1012.57 1012.54 1012.53 1012.54 1012.58 1012.65 1012.72 1012.79 1012.83 1012.85 1012.84 1012.81 1012.79 1012.79 1012.81 1012.85 1012.91 1012.96
1009.64 1009.75 1009.85 1009.92 1009.92 1009.83 1009.64 1009.38 1009.07 1008.76 1008.51 1008.34 1008.28 1008.32 1008.45 1008.63 1008.83 1009.04 1009.24 1009.43 1009.64 1009.88 1010.16 1010.48 1010.85 1011.22 1011.57 1011.87 1012.09 1012.23 1012.30 1012.30 1012.28 1012.26 1012.26 1012.30 1012.36 1012.45 1012.54 1012.63 1012.69 1012.73 1012.75 1012.77 1012.80 1012.84 1012.90 1012.97 1013.04
1009.69 1009.87 1010.06 1010.21 1010.28 1010.21 1009.99 1009.65 1009.20 1008.72 1008.26 1007.88 1007.62 1007.49 1007.49 1007.58 1007.75 1007.95 1008.17 1008.42 1008.68 1008.99 1009.34 1009.73 1010.16 1010.60 1011.02 1011.39 1011.68 1011.87 1011.97 1012.00 1011.99 1011.96 1011.94 1011.96 1012.02 1012.11 1012.22 1012.33 1012.44 1012.53 1012.61 1012.68 1012.74 1012.81 1012.89 1012.98 1013.05
1009.67 1009.94 1010.24 1010.50 1010.64 1010.60 1010.37 1009.94 1009.36 1008.69 1008.02 1007.42 1006.94 1006.62 1006.46 1006.45 1006.56 1006.75 1007.00 1007.29 1007.62 1008.00 1008.42 1008.89 1009.40 1009.92 1010.42 1010.86 1011.22 1011.47 1011.62 1011.68 1011.67 1011.64 1011.61 1011.61 1011.64 1011.73 1011.85 1011.99 1012.13 1012.27 1012.40 1012.51 1012.61 1012.71 1012.81 1012.90 1012.99
1009.60 1009.98 1010.39 1010.76 1010.99 1011.00 1010.76 1010.26 1009.56 1008.71 1007.83 1007.01 1006.31 1005.80 1005.48 1005.36 1005.39 1005.56 1005.81 1006.14 1006.53 1006.97 1007.46 1008.00 1008.59 1009.18 1009.75 1010.27 1010.70 1011.02 1011.22 1011.32 1011.33 1011.30 1011.26 1011.24 1011.26 1011.34 1011.46 1011.61 1011.79 1011.97 1012.13 1012.28 1012.42 1012.53 1012.64 1012.74 1012.82
1009.48 1009.97 1010.51 1010.99 1011.31 1011.37 1011.13 1010.59 1009.78 1008.80 1007.74 1006.72 1005.84 1005.14 1004.67 1004.42 1004.37 1004.49 1004.74 1005.08 1005.49 1005.97 1006.52 1007.11 1007.75 1008.40 1009.04 1009.63 1010.12 1010.51 1010.76 1010.90 1010.94 1010.93 1010.88 1010.85 1010.86 1010.92 1011.04 1011.21 1011.40 1011.60 1011.80 1011.98 1012.13 1012.26 1012.37 1012.46 1012.54
1009.34 1009.93 1010.57 1011.15 1011.54 1011.66 1011.45 1010.89 1010.03 1008.95 1007.77 1006.61 1005.57 1004.73 1004.12 1003.76 1003.62 1003.68 1003.88 1004.20 1004.62 1005.10 1005.66 1006.27 1006.94 1007.62 1008.30 1008.93 1009.48 1009.91 1010.22 1010.41 1010.48 1010.48 1010.45 1010.42 1010.42 1010.47 1010.58 1010.75 1010.95 1011.17 1011.38 1011.57 1011.73 1011.86 1011.97 1012.06 1012.13
1009.18 1009.84 1010.55 1011.20 1011.66 1011.83 1011.66 1011.11 1010.25 1009.14 1007.91 1006.67 1005.55 1004.61 1003.90 1003.44 1003.22 1003.20 1003.35 1003.61 1003.98 1004.43 1004.95 1005.55 1006.19 1006.87 1007.55 1008.19 1008.77 1009.24 1009.59 1009.81 1009.92 1009.95 1009.93 1009.90 1009.90 1009.95 1010.06 1010.22 1010.43 1010.65 1010.87 1011.06 1011.22 1011.35 1011.45 1011.53 1011.60
1009.03 1009.71 1010.46 1011.14 1011.64 1011.85 1011.72 1011.23 1010.41 1009.34 1008.13 1006.91 1005.76 1004.79 1004.03 1003.50 1003.20 1003.10 1003.16 1003.35 1003.63 1004.00 1004.45 1004.97 1005.56 1006.18 1006.83 1007.45 1008.02 1008.50 1008.87 1009.12 1009.26 1009.31 1009.31 1009.30 1009.31 1009.37 1009.47 1009.64 1009.84 1010.06 1010.28 1010.47 1010.63 1010.75 1010.84 1010.91 1010.98
1008.91 1009.58 1010.30 1010.97 1011.47 1011.72 1011.64 1011.22 1010.50 1009.52 1008.41 1007.26 1006.17 1005.22 1004.46 1003.90 1003.54 1003.36 1003.33 1003.41 1003.58 1003.84 1004.17 1004.58 1005.06 1005.60 1006.17 1006.73 1007.26 1007.72 1008.09 1008.35 1008.51 1008.59 1008.61 1008.63 1008.65 1008.72 1008.84 1009.00 1009.21 1009.43 1009.65 1009.84 1010.00 1010.11 1010.20 1010.26 1010.33
1008.87 1009.47 1010.12 1010.72 1011.19 1011.44 1011.41 1011.08 1010.48 1009.65 1008.69 1007.68 1006.71 1005.85 1005.13 1004.57 1004.17 1003.92 1003.78 1003.75 1003.79 1003.91 1004.11 1004.38 1004.74 1005.15 1005.61 1006.09 1006.55 1006.96 1007.30 1007.55 1007.72 1007.82 1007.87 1007.91 1007.97 1008.06 1008.19 1008.37 1008.59 1008.82 1009.04 1009.23 1009.39 1009.50 1009.58 1009.65 1009.72
1008.93 1009.42 1009.95 1010.46 1010.85 1011.07 1011.07 1010.83 1010.37 1009.71 1008.94 1008.11 1007.30 1006.55 1005.91 1005.38 1004.97 1004.66 1004.43 1004.27 1004.19 1004.17 1004.22 1004.35 1004.56 1004.84 1005.18 1005.55 1005.92 1006.27 1006.56 1006.79 1006.96 1007.07 1007.14 1007.21 1007.30 1007.42 1007.59 1007.79 1008.02 1008.27 1008.50 1008.70 1008.86 1008.97 1009.05 1009.12 1009.19
Thickness
5817 5820 5821 5814 5808 5805 5798 5805 5812 5810 5810 5816 5816 5813 5805 5799 5793 5784 5806 5814 5813 5812 5808 5801 5797 5795 5793 5792 5791 5789 5788 5788 5787 5787 5786 5785 5783 5781 5780 5779 5778 5777 5776 5774 5772 5771 5769 5768 5767
5826 5824 5819 5815 5809 5797 5795 5809 5809 5810 5814 5819 5816 5813 5807 5802 5806 5805 5809 5812 5813 5812 5808 5802 5796 5794 5792 5791 5789 5787 5787 5786 5785 5785 5784 5784 5782 5780 5779 5778 5777 5776 5775 5773 5771 5770 5768 5767 5766
5828 5825 5818 5818 5808 5798 5797 5811 5812 5817 5821 5818 5813 5813 5806 5801 5806 5808 5812 5814 5814 5812 5809 5801 5795 5793 5791 5789 5788 5786 5786 5785 5784 5783 5783 5782 5781 5779 5778 5776 5775 5774 5773 5772 5770 5769 5767 5766 5765
5828 5824 5823 5817 5806 5811 5813 5817 5820 5817 5818 5819 5815 5808 5808 5811 5812 5813 5815 5815 5813 5811 5808 5801 5795 5791 5789 5787 5786 5785 5784 5784 5783 5782 5781 5781 5779 5777 5776 5775 5774 5773 5772 5770 5769 5768 5766 5765 5764
5831 5826 5819 5813 5811 5818 5825 5826 5825 5817 5815 5817 5815 5805 5802 5812 5817 5816 5815 5814 5812 5810 5807 5801 5794 5790 5788 5786 5785 5783 5783 5782 5781 5780 5779 5778 5777 5776 5775 5774 5773 5772 5770 5769 5768 5767 5765 5764 5762
5829 5829 5815 5806 5810 5820 5827 5830 5827 5820 5818 5817 5814 5807 5803 5814 5814 5814 5815 5813 5813 5810 5806 5801 5793 5790 5788 5785 5784 5782 5781 5780 5779 5778 5778 5776 5775 5774 5774 5773 5772 5771 5769 5768 5767 5766 5764 5762 5761
5826 5825 5815 5814 5813 5817 5824 5832 5826 5822 5817 5818 5820 5808 5806 5811 5815 5816 5814 5813 5812 5810 5806 5802 5798 5792 5788 5785 5783 5781 5780 5778 5777 5777 5776 5775 5774 5773 5772 5771 5771 5770 5769 5767 5766 5765 5763 5761 5760
5836 5829 5821 5820 5816 5816 5829 5832 5830 5826 5820 5828 5825 5810 5804 5811 5817 5817 5814 5812 5810 5808 5806 5803 5799 5795 5792 5788 5783 5781 5780 5778 5777 5776 5775 5775 5774 5773 5772 5771 5770 5769 5768 5767 5766 5764 5762 5761 5760
5839 5825 5818 5821 5820 5822 5832 5828 5830 5834 5827 5824 5824 5821 5819 5819 5818 5813 5810 5808 5806 5804 5804 5803 5801 5796 5794 5791 5786 5783 5781 5780 5778 5777 5775 5775 5776 5775 5773 5772 5770 5769 5767 5766 5765 5764 5762 5761 5760
5834 5821 5823 5833 5835 5832 5833 5831 5831 5828 5821 5818 5818 5820 5821 5818 5815 5810 5807 5805 5802 5801 5802 5802 5800 5797 5794 5792 5788 5786 5785 5782 5780 5778 5777 5776 5775 5775 5775 5771 5770 5769 5767 5766 5765 5763 5762 5762 5764
5836 5826 5834 5840 5843 5841 5836 5834 5836 5828 5819 5821 5818 5816 5818 5816 5813 5810 5808 5806 5804 5802 5802 5802 5799 5796 5795 5792 5790 5788 5785 5783 5781 5778 5777 5776 5776 5776 5776 5774 5772 5770 5769 5768 5766 5766 5766 5766 5765
5835 5837 5841 5842 5846 5843 5838 5837 5833 5830 5827 5834 5831 5825 5820 5815 5813 5811 5808 5806 5805 5802 5801 5801 5799 5796 5793 5792 5790 5788 5787 5784 5783 5779 5778 5778 5777 5776 5776 5774 5774 5772 5771 5769 5768 5767 5766 5765 5764
5835 5838 5845 5848 5848 5846 5842 5837 5834 5831 5836 5837 5832 5825 5821 5818 5815 5814 5813 5810 5807 5802 5801 5800 5798 5795 5792 5790 5789 5789 5786 5786 5783 5780 5779 5778 5778 5776 5776 5773 5773 5773 5772 5770 5768 5767 5766 5765 5765
5840 5842 5844 5847 5846 5845 5838 5837 5834 5831 5837 5832 5827 5823 5822 5819 5816 5814 5811 5808 5806 5805 5803 5801 5798 5795 5792 5789 5788 5787 5786 5783 5783 5782 5780 5778 5778 5776 5775 5773 5772 5772 5771 5770 5769 5768 5767 5767 5766
5845 5838 5840 5845 5844 5844 5841 5830 5832 5837 5836 5828 5825 5823 5821 5819 5817 5814 5811 5809 5808 5806 5804 5801 5799 5796 5792 5790 5789 5788 5787 5785 5784 5782 5779 5778 5778 5775 5775 5774 5773 5772 5771 5769 5769 5768 5769 5767 5767
5841 5833 5827 5838 5843 5843 5834 5819 5834 5841 5834 5826 5825 5823 5820 5819 5818 5816 5814 5811 5810 5808 5804 5802 5801 5797 5793 5789 5787 5788 5787 5785 5784 5783 5781 5779 5777 5776 5774 5775 5774 5772 5771 5771 5769 5769 5768 5767 5767
5831 5823 5823 5831 5841 5840 5834 5825 5836 5842 5835 5827 5825 5823 5821 5819 5818 5818 5816 5814 5812 5808 5805 5801 5800 5797 5793 5790 5787 5786 5785 5784 5783 5782 5781 5779 5777 5776 5775 5775 5773 5772 5772 5771 5770 5768 5767 5765 5764
5821 5825 5824 5825 5836 5835 5830 5830 5837 5840 5836 5830 5827 5825 5822 5820 5818 5819 5818 5816 5814 5810 5806 5802 5799 5796 5794 5791 5788 5786 5785 5784 5783 5781 5779 5778 5777 5776 5775 5775 5772 5773 5772 5769 5768 5766 5765 5764 5764
5828 5824 5821 5827 5837 5831 5828 5829 5836 5840 5835 5832 5829 5827 5824 5822 5824 5822 5819 5817 5814 5810 5805 5802 5799 5796 5793 5791 5789 5785 5783 5783 5783 5782 5779 5778 5777 5776 5775 5776 5773 5772 5771 5768 5768 5767 5765 5764 5764
5825 5819 5821 5827 5834 5829 5826 5829 5838 5839 5836 5835 5832 5828 5827 5824 5822 5820 5818 5816 5813 5809 5806 5802 5799 5797 5795 5792 5790 5787 5785 5784 5784 5782 5779 5778 5777 5776 5776 5774 5773 5772 5770 5767 5766 5764 5764 5764 5764
5822 5821 5821 5819 5826 5831 5825 5824 5831 5837 5839 5837 5836 5834 5832 5828 5823 5821 5818 5816 5814 5810 5807 5805 5800 5798 5796 5794 5792 5789 5785 5784 5783 5781 5779 5778 5777 5776 5774 5773 5772 5771 5770 5768 5765 5764 5762 5761 5762
5817 5829 5825 5821 5817 5819 5820 5810 5827 5833 5831 5832 5833 5834 5833 5831 5828 5825 5821 5817 5815 5813 5810 5806 5802 5798 5796 5794 5792 5787 5783 5781 5781 5780 5780 5779 5777 5775 5774 5772 5770 5769 5770 5767 5766 5766 5764 5760 5759
5822 5830 5825 5822 5818 5817 5821 5813 5826 5833 5825 5829 5834 5835 5835 5834 5831 5827 5823 5819 5817 5815 5812 5808 5803 5799 5796 5794 5791 5787 5785 5783 5783 5781 5778 5777 5777 5775 5773 5771 5770 5768 5768 5766 5765 5764 5762 5762 5759
5827 5823 5821 5821 5820 5803 5815 5810 5816 5830 5829 5832 5836 5836 5835 5834 5831 5828 5825 5821 5817 5815 5812 5808 5802 5798 5795 5793 5791 5787 5784 5781 5779 5777 5776 5776 5777 5775 5773 5771 5769 5767 5766 5764 5763 5761 5761 5760 5758
5820 5810 5800 5797 5799 5803 5819 5809 5816 5833 5837 5836 5835 5836 5836 5834 5831 5826 5822 5818 5815 5812 5810 5806 5801 5796 5795 5793 5790 5788 5784 5781 5778 5777 5775 5775 5775 5774 5771 5770 5767 5766 5764 5763 5762 5760 5759 5758 5755
5816 5814 5794 5784 5791 5806 5811 5807 5824 5837 5840 5839 5838 5838 5835 5833 5830 5826 5823 5819 5816 5812 5808 5805 5800 5796 5794 5791 5789 5787 5784 5783 5781 5778 5777 5775 5774 5773 5771 5768 5766 5764 5763 5762 5760 5759 5757 5756 5754
5811 5812 5822 5807 5800 5794 5808 5815 5825 5834 5832 5833 5833 5833 5831 5830 5828 5825 5823 5820 5816 5812 5808 5806 5800 5796 5793 5790 5788 5785 5783 5780 5779 5777 5775 5775 5772 5772 5769 5766 5764 5763 5761 5760 5758 5757 5755 5753 5752
5821 5820 5809 5798 5777 5779 5795 5802 5811 5817 5821 5826 5827 5827 5827 5827 5825 5822 5820 5817 5815 5812 5809 5805 5801 5796 5793 5790 5788 5786 5782 5780 5777 5775 5772 5771 5769 5768 5766 5765 5763 5761 5759 5758 5755 5755 5752 5750 5748
5804 5805 5804 5804 5798 5786 5783 5799 5825 5821 5822 5822 5824 5825 5824 5823 5822 5819 5817 5815 5812 5809 5807 5802 5799 5795 5792 5789 5786 5784 5782 5779 5776 5773 5771 5769 5767 5765 5763 5762 5760 5758 5757 5755 5752 5752 5750 5747 5745
5811 5807 5803 5789 5785 5790 5790 5800 5828 5824 5824 5823 5822 5821 5821 5820 5819 5817 5814 5811 5807 5804 5802 5799 5797 5794 5791 5788 5784 5782 5779 5777 5775 5772 5770 5768 5766 5764 5762 5760 5758 5756 5755 5753 5750 5748 5747 5744 5742